Location: Chiroubles
(46.1812°N, 4.6660°E)
Time: 06:07:10
(UTC+00:00)

Transit 4A - Pass Details

Date: 01 December 2020
Orbit: 864 x 981 km, 66.8° (Epoch: 16 January)

Event Time Altitude Azimuth Distance (km) Brightness Sun altitude
Rises 17:08:56 0° 317° (NW) 3,674 11.3 -12.1°
Reaches altitude 10° 17:12:00 10° 304° (NW) 2,710 10.9 -12.6°
Maximum altitude 17:16:50 24° 254° (WSW) 1,880 10.5 -13.4°
Drops below altitude 10° 17:21:34 10° 204° (SSW) 2,640 10.9 -14.1°
Sets 17:24:32 0° 190° (S) 3,558 11.3 -14.6°
